| time (UTC) | temp F | wind direction | speed knots | gust knots | rain 1hr in | rain 24hr in | rain mn in | humidity % | barometer mb |
| 20260508043049 | 42 | 360 | 0.0 | 0.9 | 0.00 | 0.00 | 0.00 | 40 | 1009.4 |
| 20260508041518 | 43 | 360 | 0.0 | 0.9 | 0.00 | 0.00 | 0.00 | 40 | 1009.3 |
| 20260508040036 | 43 | 360 | 0.0 | 0.9 | 0.00 | 0.00 | 0.00 | 40 | 1009.3 |
| 20260508034515 | 44 | 360 | 0.0 | 0.9 | 0.00 | 0.00 | 0.00 | 38 | 1009.3 |
| 20260508033017 | 45 | 360 | 0.0 | 0.9 | 0.00 | 0.00 | 0.00 | 35 | 1009.3 |
| 20260508031517 | 46 | 360 | 0.0 | 0.9 | 0.00 | 0.00 | 0.00 | 36 | 1009.1 |
| 20260508030013 | 47 | 360 | 0.0 | 0.9 | 0.00 | 0.00 | 0.00 | 35 | 1008.9 |
| 20260508024521 | 49 | 360 | 0.0 | 0.0 | 0.00 | 0.00 | 0.00 | 30 | 1008.8 |
| 20260508023011 | 51 | 360 | 0.0 | 0.9 | 0.00 | 0.00 | 0.00 | 29 | 1008.7 |
| 20260508021509 | 54 | 360 | 0.0 | 0.9 | 0.00 | 0.00 | 0.00 | 28 | 1008.5 |
| 20260508020008 | 56 | 360 | 0.0 | 0.0 | 0.00 | 0.00 | 0.00 | 25 | 1008.2 |
| 20260508014508 | 60 | 360 | 0.0 | 0.0 | 0.00 | 0.00 | 0.00 | 23 | 1008.0 |
| 20260508013005 | 64 | 360 | 0.0 | 2.6 | 0.00 | 0.00 | 0.00 | 16 | 1008.0 |
| 20260508011505 | 64 | 360 | 0.9 | 3.5 | 0.00 | 0.01 | 0.00 | 15 | 1008.0 |
| 20260508010004 | 64 | 184 | 0.0 | 1.7 | 0.00 | 0.01 | 0.00 | 15 | 1008.2 |
| 20260508004501 | 65 | 190 | 0.0 | 0.9 | 0.00 | 0.01 | 0.00 | 15 | 1008.3 |
| 20260508003028 | 66 | 190 | 0.0 | 2.6 | 0.00 | 0.01 | 0.00 | 15 | 1008.7 |
| 20260508001527 | 66 | 198 | 0.9 | 4.3 | 0.00 | 0.01 | 0.00 | 15 | 1008.9 |
| 20260507234601 | 65 | 360 | 0.0 | 1.7 | 0.00 | 0.01 | 0.00 | 17 | 1009.1 |
| 20260507233110 | 64 | 360 | 0.0 | 4.3 | 0.00 | 0.01 | 0.00 | 18 | 1009.5 |
| 20260507231548 | 64 | 360 | 2.6 | 8.7 | 0.00 | 0.03 | 0.00 | 17 | 1009.9 |
| 20260507230049 | 65 | 360 | 0.9 | 5.2 | 0.00 | 0.03 | 0.00 | 18 | 1009.9 |
| 20260507224544 | 66 | 360 | 0.0 | 7.0 | 0.00 | 0.03 | 0.00 | 18 | 1010.2 |
| 20260507223055 | 68 | 360 | 2.6 | 7.0 | 0.00 | 0.03 | 0.00 | 17 | 1010.5 |
| 20260507221542 | 68 | 360 | 0.9 | 5.2 | 0.00 | 0.06 | 0.00 | 16 | 1010.8 |
| 20260507220038 | 68 | 360 | 0.0 | 7.0 | 0.00 | 0.06 | 0.00 | 16 | 1011.1 |
| 20260507214532 | 69 | 360 | 0.9 | 5.2 | 0.00 | 0.06 | 0.00 | 16 | 1011.5 |
| 20260507213031 | 69 | 360 | 0.9 | 9.6 | 0.00 | 0.06 | 0.00 | 15 | 1012.0 |
| 20260507211523 | 68 | 360 | 0.9 | 7.0 | 0.00 | 0.06 | 0.00 | 16 | 1012.3 |
| 20260507210026 | 67 | 360 | 1.7 | 7.8 | 0.00 | 0.06 | 0.00 | 16 | 1012.6 |
| 20260507204515 | 66 | 360 | 1.7 | 7.8 | 0.00 | 0.06 | 0.00 | 20 | 1013.1 |
| 20260507203012 | 66 | 360 | 2.6 | 9.6 | 0.00 | 0.06 | 0.00 | 17 | 1013.5 |
| 20260507201509 | 64 | 360 | 1.7 | 9.6 | 0.00 | 0.06 | 0.00 | 18 | 1013.8 |
| 20260507200009 | 64 | 360 | 1.7 | 7.8 | 0.00 | 0.06 | 0.00 | 17 | 1014.1 |
| 20260507194507 | 64 | 360 | 1.7 | 7.0 | 0.00 | 0.06 | 0.00 | 16 | 1014.4 |
| 20260507193057 | 64 | 360 | 1.7 | 7.8 | 0.00 | 0.06 | 0.00 | 15 | 1014.8 |
| 20260507191554 | 64 | 360 | 0.9 | 3.5 | 0.00 | 0.07 | 0.00 | 14 | 1015.2 |
| 20260507190057 | 62 | 360 | 0.0 | 4.3 | 0.00 | 0.07 | 0.00 | 16 | 1015.4 |
| 20260507184547 | 61 | 360 | 0.9 | 3.5 | 0.00 | 0.07 | 0.00 | 20 | 1015.8 |
| 20260507183050 | 60 | 360 | 1.7 | 4.3 | 0.00 | 0.07 | 0.00 | 20 | 1016.1 |
| 20260507181535 | 59 | 360 | 0.0 | 5.2 | 0.00 | 0.07 | 0.00 | 21 | 1016.3 |
| 20260507180031 | 58 | 360 | 1.7 | 3.5 | 0.00 | 0.07 | 0.00 | 26 | 1016.3 |
| 20260507174533 | 57 | 360 | 0.0 | 3.5 | 0.00 | 0.07 | 0.00 | 30 | 1016.6 |
| 20260507173102 | 55 | 360 | 0.0 | 2.6 | 0.00 | 0.07 | 0.00 | 31 | 1016.9 |
| 20260507171548 | 54 | 360 | 0.0 | 3.5 | 0.00 | 0.09 | 0.00 | 34 | 1017.2 |
| 20260507170044 | 52 | 360 | 0.0 | 2.6 | 0.00 | 0.09 | 0.00 | 36 | 1017.4 |
| 20260507164546 | 51 | 360 | 0.0 | 3.5 | 0.00 | 0.09 | 0.00 | 40 | 1017.6 |
| 20260507163032 | 49 | 360 | 0.9 | 2.6 | 0.00 | 0.09 | 0.00 | 42 | 1017.8 |
| 20260507161527 | 47 | 360 | 0.0 | 2.6 | 0.00 | 0.09 | 0.00 | 48 | 1018.3 |
| 20260507160025 | 46 | 360 | 0.0 | 2.6 | 0.00 | 0.09 | 0.00 | 54 | 1018.3 |
| 20260507154516 | 43 | 360 | 0.0 | 3.5 | 0.00 | 0.09 | 0.00 | 52 | 1018.5 |
| 20260507153011 | 41 | 360 | 0.9 | 4.3 | 0.00 | 0.09 | 0.00 | 59 | 1018.8 |
| 20260507151507 | 39 | 360 | 0.0 | 1.7 | 0.00 | 0.09 | 0.00 | 65 | 1019.0 |
| 20260507144600 | 35 | 360 | 0.0 | 2.6 | 0.00 | 0.09 | 0.00 | 73 | 1019.0 |
| 20260507143056 | 32 | 360 | 0.0 | 0.0 | 0.00 | 0.09 | 0.00 | 82 | 1019.1 |
| 20260507141549 | 29 | 360 | 0.0 | 0.0 | 0.00 | 0.09 | 0.00 | 86 | 1019.0 |
| 20260507140045 | 27 | 360 | 0.0 | 0.0 | 0.00 | 0.09 | 0.00 | 85 | 1019.1 |
| 20260507134536 | 26 | 360 | 0.0 | 0.0 | 0.00 | 0.09 | 0.00 | 84 | 1018.7 |
| 20260507133032 | 25 | 360 | 0.0 | 0.0 | 0.00 | 0.09 | 0.00 | 83 | 1018.4 |
| 20260507131530 | 25 | 360 | 0.0 | 0.0 | 0.00 | 0.09 | 0.00 | 84 | 1018.5 |
| 20260507130037 | 25 | 360 | 0.0 | 0.0 | 0.00 | 0.09 | 0.00 | 84 | 1018.4 |
| 20260507124605 | 25 | 360 | 0.0 | 0.0 | 0.00 | 0.09 | 0.00 | 85 | 1018.5 |
| 20260507123055 | 25 | 360 | 0.0 | 0.0 | 0.00 | 0.09 | 0.00 | 85 | 1018.3 |
| 20260507121524 | 25 | 360 | 0.0 | 0.0 | 0.00 | 0.09 | 0.00 | 85 | 1017.9 |
| 20260507120023 | 25 | 360 | 0.0 | 0.0 | 0.00 | 0.09 | 0.00 | 86 | 1018.2 |
| 20260507114519 | 25 | 360 | 0.0 | 0.0 | 0.00 | 0.09 | 0.00 | 86 | 1018.0 |
| 20260507113035 | 25 | 360 | 0.0 | 0.0 | 0.00 | 0.09 | 0.00 | 86 | 1017.7 |
| 20260507111516 | 26 | 360 | 0.0 | 0.0 | 0.00 | 0.09 | 0.00 | 86 | 1017.5 |
| 20260507110016 | 26 | 360 | 0.0 | 0.0 | 0.00 | 0.09 | 0.00 | 86 | 1017.4 |
| 20260507104511 | 26 | 360 | 0.0 | 0.0 | 0.00 | 0.09 | 0.00 | 87 | 1017.3 |
| 20260507103010 | 26 | 360 | 0.0 | 0.0 | 0.00 | 0.09 | 0.00 | 87 | 1017.3 |
| 20260507101514 | 26 | 360 | 0.0 | 0.0 | 0.00 | 0.09 | 0.00 | 87 | 1017.0 |
| 20260507100005 | 26 | 360 | 0.0 | 0.0 | 0.00 | 0.09 | 0.00 | 87 | 1017.0 |
| 20260507094536 | 26 | 360 | 0.0 | 0.0 | 0.00 | 0.09 | 0.00 | 87 | 1017.0 |
| 20260507093036 | 27 | 360 | 0.0 | 0.0 | 0.00 | 0.09 | 0.00 | 87 | 1017.0 |
| 20260507091524 | 27 | 360 | 0.0 | 0.0 | 0.00 | 0.09 | 0.00 | 88 | 1017.0 |
| 20260507090023 | 27 | 360 | 0.0 | 0.0 | 0.00 | 0.09 | 0.00 | 87 | 1017.0 |
| 20260507084520 | 27 | 360 | 0.0 | 0.0 | 0.00 | 0.09 | 0.00 | 87 | 1016.7 |
| 20260507083019 | 27 | 360 | 0.0 | 0.0 | 0.00 | 0.09 | 0.00 | 88 | 1016.8 |
| 20260507081532 | 27 | 360 | 0.0 | 0.0 | 0.00 | 0.09 | 0.00 | 87 | 1016.6 |
| 20260507080015 | 28 | 360 | 0.0 | 0.0 | 0.00 | 0.09 | 0.00 | 87 | 1016.5 |
| 20260507074515 | 28 | 360 | 0.0 | 0.0 | 0.00 | 0.09 | 0.00 | 87 | 1016.3 |
| 20260507073013 | 28 | 360 | 0.0 | 0.0 | 0.00 | 0.09 | 0.00 | 87 | 1016.3 |
| 20260507071515 | 28 | 360 | 0.0 | 0.0 | 0.00 | 0.09 | 0.00 | 87 | 1016.0 |
| 20260507070014 | 28 | 360 | 0.0 | 0.0 | 0.00 | 0.09 | 0.00 | 87 | 1015.8 |
| 20260507064513 | 28 | 360 | 0.0 | 0.0 | 0.00 | 0.09 | 0.00 | 87 | 1015.9 |
| 20260507063011 | 29 | 360 | 0.0 | 0.0 | 0.00 | 0.09 | 0.00 | 87 | 1015.8 |
| 20260507061547 | 29 | 360 | 0.0 | 0.0 | 0.00 | 0.09 | 0.09 | 88 | 1015.6 |
| 20260507060045 | 29 | 360 | 0.0 | 0.0 | 0.00 | 0.09 | 0.09 | 89 | 1015.3 |
| 20260507054540 | 29 | 360 | 0.0 | 0.0 | 0.00 | 0.09 | 0.09 | 89 | 1015.2 |
| 20260507053038 | 29 | 360 | 0.0 | 0.0 | 0.00 | 0.09 | 0.09 | 89 | 1014.9 |
| 20260507051536 | 29 | 360 | 0.0 | 0.0 | 0.00 | 0.09 | 0.09 | 88 | 1014.7 |
| 20260507050033 | 29 | 360 | 0.0 | 0.0 | 0.00 | 0.09 | 0.09 | 87 | 1014.5 |
| 20260507044501 | 30 | 360 | 0.0 | 0.0 | 0.00 | 0.09 | 0.09 | 87 | 1014.2 |